Weather Roundup
Issued by NWS Chicago, IL

Home | Current Version | Previous Version | Text Only | Print | Product List | Glossary Off
Versions: 1 2 3 4 5 6 7 8 9 10 11 12 13 14 15 16 17 18 19 20 21 22 23 24 25 26 27 28 29 30 31 32 33 34 35 36 37 38 39 40 41 42 43 44 45 46 47 48 49 50

000
NZUS59 KLOT 300108
HRRLOT

CHICAGO AREA WEATHER ROUNDUP
NATIONAL WEATHER SERVICE CHICAGO/ROMEOVILLE IL
800 PM CDT MON AUG 29 2016

NOTE: "FAIR" INDICATES FEW OR NO CLOUDS BELOW 12,000 FEET WITH NO
SIGNIFICANT WEATHER AND/OR OBSTRUCTIONS TO VISIBILITY.

* THESE STATIONS ARE NOT UNDER NWS QUALITY CONTROL. THEY ALSO MAY NOT
  REPORT WEATHER SUCH AS PRECIPITATION OR FOG.

ILZ005-006-012>014-019>023-300200-
NORTHEAST ILLINOIS

CITY           SKY/WX    TMP DP  RH WIND       PRES   REMARKS
OHARE          CLOUDY    75  72  90 NE5       30.17F
MIDWAY         CLOUDY    79  71  76 N5        30.17F HX  82
AURORA         CLOUDY    74  71  91 SE5       30.16F
LANSING*       CLOUDY    76  74  93 NE5       30.18S
JOLIET*        CLOUDY    76  73  92 CALM      30.16F
WAUKEGAN       CLOUDY    73  71  93 CALM      30.17F
DUPAGE AIRPORT LGT RAIN  73  71  93 N3        30.17F
WHEELING       CLOUDY    74  72  93 CALM      30.19F
KANKAKEE*      MOCLDY    79  75  87 CALM      30.17R FOG     HX  83
MORRIS*        CLOUDY    73  70  91 CALM      30.16S
LEWIS AIRPORT* CLOUDY    74  73  99 E3        30.17F
$$

WIZ051-052-058>065-066-070>072-300200-
SOUTHEAST WISCONSIN

CITY           SKY/WX    TMP DP  RH WIND       PRES   REMARKS
MILWAUKEE      MOCLDY    76  70  82 S3        30.18S
KENOSHA*       CLOUDY    74  69  85 CALM      30.19F
RACINE*        CLOUDY    75  70  84 SE5       30.19F
BURLINGTON     CLOUDY    70  67  90 CALM      30.18F
WAUKESHA       PTCLDY    75  66  73 S6        30.20S
$$

INZ001>003-010>013-019-020-300200-
NORTHWEST INDIANA

CITY           SKY/WX    TMP DP  RH WIND       PRES   REMARKS
GARY*          MOCLDY    77  75  94 NE5       30.18S
MICHIGAN CITY* NOT AVBL
RENSSELAER*    NOT AVBL
VALPARAISO     MOCLDY    77  73  87 NE3       30.18S
$$

LMZ740>746-300200-
SOUTHERN LAKE MICHIGAN

STATION/POSITION TIME  SKY/WX   TEMP WIND        PRES    VSBY
                                AIR  DIR/SP/G
                 (UTC)          (F)  (DEG/KT/KT) (MB)    (MI)
HARRISON CRIB    0000            75  340/  7/  8   N/A
BURNHAM HARBOR   0100            75  360/  4/  6   N/A
CALUMET HARBOR   0000            75              1021.7
BURNS HARBOR     0000            73   80/  8/  9 1022.0F
MICHIGAN CITY    0000            75   40/ 10/ 10   N/A
$$

ABBREVIATIONS USED IN REMARKS
   TC - TEMPERATURE IN CELSIUS
  WCI - WIND CHILL INDEX
   HX - HEAT INDEX
  VSB - VISIBILITY
$$




USA.gov is the U.S. government's official web portal to all federal, state and local government web resources and services.